Location: Home
(42.5358°N, 72.7383°W)
Time: 13:45:01
(UTC-05:00)

deb Explorer IX - Pass Details

Date: 03 December 2021
Orbit: 544 x 1082 km, 38.8° (Epoch: 16 January)

Event Time Altitude Azimuth Distance (km) Brightness Sun altitude
Rises 08:43:53 0° 203° (SSW) 3,151 ? 13.5°
Reaches altitude 10° 08:47:48 10° 175° (S) 2,100 ? 14.0°
Maximum altitude 08:49:49 13° 150° (SSE) 1,873 ? 14.2°
Drops below altitude 10° 08:51:45 10° 124° (SE) 1,984 ? 14.5°
Sets 08:55:12 0° 95° (E) 2,802 ? 14.9°
